Tracking 20242 objects as of 24-Jan-2020
HD Live streaming from Space Station
objects crossing your sky now

COSMOS 2251 DEB

Track COSMOS 2251 DEB now!
10-day predictions


NORAD ID: 36052
Int'l Code: 1993-036AXP
Perigee: 722.9 km
Apogee: 745.7 km
Inclination: 74.0 °
Period: 99.3 minutes
Semi major axis: 7105 km
RCS: 0.0013 m2 (small)
Launch date: June 16, 1993
Source: Commonwealth of Independent States (former USSR) (CIS)
Launch site: PLESETSK MISSILE AND SPACE COMPLEX (PKMTR)

Note: This is SATELLITE DEBRIS
aabbcc
Your satellite tracking list
Your tracking list is empty




NASA's NSSDC Master Catalog

Two Line Element Set (TLE):
1 36052U 93036AXP 20024.12844217  .00000720  00000-0  19461-3 0  9997
2 36052  74.0306 162.5787 0016033  44.3420 315.9020 14.49526063551780
Source of the keplerian elements: AFSPC